Tiempo cada hora Alkino

Hoy, 28 Julio, Miércoles

Tiempo Temperatura Precipitaciones Viento Presión Humedad
00:00 +15°C° 0 mm 2 mps 748 mmHg 69%
01:00 +14°C° 0 mm 2 mps 748 mmHg 70%
02:00 +13°C° 0 mm 2 mps 748 mmHg 72%
03:00 +13°C° 0 mm 2 mps 748 mmHg 75%
04:00 +12°C° 0 mm 2 mps 748 mmHg 81%
05:00 +12°C° 0 mm 3 mps 748 mmHg 76%
06:00 +14°C° 0 mm 3 mps 748 mmHg 70%
07:00 +15°C° 0 mm 4 mps 749 mmHg 65%
08:00 +17°C° 0 mm 4 mps 749 mmHg 56%
09:00 +19°C° 0 mm 5 mps 749 mmHg 48%
10:00 +20°C° 0 mm 5 mps 749 mmHg 40%
11:00 +21°C° 0 mm 5 mps 749 mmHg 36%
12:00 +22°C° 0 mm 5 mps 749 mmHg 33%
13:00 +22°C° 0 mm 5 mps 748 mmHg 29%
14:00 +23°C° 0 mm 5 mps 748 mmHg 29%
15:00 +23°C° 0 mm 5 mps 748 mmHg 28%
16:00 +23°C° 0 mm 5 mps 748 mmHg 27%
17:00 +23°C° 0 mm 5 mps 748 mmHg 29%
18:00 +22°C° 0 mm 4 mps 748 mmHg 31%
19:00 +21°C° 0 mm 4 mps 748 mmHg 32%
20:00 +19°C° 0 mm 3 mps 749 mmHg 40%
21:00 +17°C° 0 mm 2 mps 749 mmHg 47%
22:00 +14°C° 0 mm 1 mps 749 mmHg 55%
23:00 +14°C° 0 mm 1 mps 749 mmHg 57%

Mañana, 29 Julio, Jueves

Tiempo Temperatura Precipitaciones Viento Presión Humedad
00:00 +13°C° 0 mm 1 mps 749 mmHg 59%
01:00 +13°C° 0 mm 1 mps 749 mmHg 61%
02:00 +12°C° 0 mm 2 mps 749 mmHg 62%
03:00 +12°C° 0 mm 2 mps 749 mmHg 63%
04:00 +10°C° 0 mm 2 mps 749 mmHg 64%
05:00 +13°C° 0 mm 2 mps 749 mmHg 58%
06:00 +15°C° 0 mm 2 mps 749 mmHg 52%
07:00 +17°C° 0 mm 2 mps 749 mmHg 45%
08:00 +19°C° 0 mm 3 mps 749 mmHg 41%
09:00 +21°C° 0 mm 3 mps 749 mmHg 36%
10:00 +24°C° 0 mm 3 mps 748 mmHg 31%
11:00 +25°C° 0 mm 4 mps 748 mmHg 28%
12:00 +27°C° 0 mm 4 mps 748 mmHg 25%
13:00 +28°C° 0 mm 4 mps 747 mmHg 22%
14:00 +28°C° 0 mm 4 mps 747 mmHg 21%
15:00 +28°C° 0 mm 4 mps 747 mmHg 20%
16:00 +29°C° 0 mm 4 mps 746 mmHg 19%
17:00 +28°C° 0 mm 3 mps 746 mmHg 21%
18:00 +27°C° 0 mm 2 mps 746 mmHg 23%
19:00 +25°C° 0 mm 2 mps 745 mmHg 25%
20:00 +24°C° 0 mm 2 mps 745 mmHg 27%
21:00 +23°C° 0 mm 2 mps 745 mmHg 28%
22:00 +21°C° 0 mm 3 mps 744 mmHg 29%
23:00 +21°C° 0 mm 3 mps 744 mmHg 35%

Pasado mañana, 30 Julio, Viernes

Tiempo Temperatura Precipitaciones Viento Presión Humedad
00:00 +21°C° 0 mm 3 mps 744 mmHg 40%
01:00 +20°C° 0 mm 3 mps 744 mmHg 46%
02:00 +19°C° 0.4 mm 4 mps 744 mmHg 62%
03:00 +18°C° 0.4 mm 4 mps 743 mmHg 77%
04:00 +17°C° 0.4 mm 4 mps 743 mmHg 93%
05:00 +17°C° 0.5 mm 4 mps 743 mmHg 93%
06:00 +16°C° 0.5 mm 5 mps 743 mmHg 92%
07:00 +16°C° 0.5 mm 5 mps 742 mmHg 91%
08:00 +18°C° 0 mm 4 mps 742 mmHg 87%
09:00 +19°C° 0 mm 4 mps 742 mmHg 82%
10:00 +20°C° 0 mm 4 mps 742 mmHg 77%
11:00 +22°C° 0.1 mm 4 mps 742 mmHg 71%
12:00 +23°C° 0.1 mm 4 mps 742 mmHg 66%
13:00 +25°C° 0.1 mm 4 mps 742 mmHg 60%
14:00 +26°C° 0.1 mm 4 mps 742 mmHg 59%
15:00 +26°C° 0.1 mm 4 mps 743 mmHg 57%
16:00 +26°C° 0.1 mm 4 mps 743 mmHg 55%
17:00 +26°C° 0 mm 4 mps 743 mmHg 55%
18:00 +26°C° 0 mm 3 mps 743 mmHg 54%
19:00 +26°C° 0 mm 3 mps 743 mmHg 54%
20:00 +24°C° 0 mm 2 mps 744 mmHg 60%
21:00 +23°C° 0 mm 2 mps 744 mmHg 65%
22:00 +20°C° 0 mm 2 mps 744 mmHg 71%
23:00 +20°C° 0 mm 2 mps 744 mmHg 72%

31 Julio, Sábado

Tiempo Temperatura Precipitaciones Viento Presión Humedad
00:00 +20°C° 0 mm 1 mps 744 mmHg 74%
01:00 +20°C° 0 mm 1 mps 744 mmHg 76%
02:00 +19°C° 0 mm 2 mps 744 mmHg 76%
03:00 +19°C° 0 mm 2 mps 744 mmHg 76%
04:00 +19°C° 0 mm 2 mps 744 mmHg 76%
05:00 +20°C° 0.1 mm 2 mps 745 mmHg 74%
06:00 +21°C° 0.1 mm 2 mps 745 mmHg 72%
07:00 +23°C° 0.1 mm 2 mps 745 mmHg 70%
08:00 +24°C° 0.1 mm 3 mps 745 mmHg 64%
09:00 +26°C° 0.1 mm 3 mps 745 mmHg 58%
10:00 +27°C° 0.1 mm 3 mps 745 mmHg 52%
11:00 +28°C° 0 mm 4 mps 745 mmHg 50%
12:00 +28°C° 0 mm 5 mps 744 mmHg 48%
13:00 +29°C° 0 mm 7 mps 744 mmHg 46%
14:00 +28°C° 0.1 mm 5 mps 744 mmHg 48%
15:00 +28°C° 0.1 mm 4 mps 744 mmHg 50%
16:00 +28°C° 0.1 mm 3 mps 744 mmHg 51%
17:00 +28°C° 0.1 mm 3 mps 743 mmHg 51%
18:00 +28°C° 0.1 mm 3 mps 743 mmHg 50%
19:00 +28°C° 0.1 mm 3 mps 743 mmHg 50%
20:00 +26°C° 0.3 mm 3 mps 743 mmHg 60%
21:00 +24°C° 0.3 mm 3 mps 743 mmHg 71%
22:00 +21°C° 0.3 mm 3 mps 743 mmHg 82%
23:00 +21°C° 0.1 mm 2 mps 743 mmHg 82%

1 Agosto, Domingo

Tiempo Temperatura Precipitaciones Viento Presión Humedad
00:00 +20°C° 0.1 mm 2 mps 744 mmHg 83%
01:00 +20°C° 0.1 mm 2 mps 744 mmHg 84%
02:00 +20°C° 0 mm 2 mps 744 mmHg 86%
03:00 +19°C° 0 mm 2 mps 744 mmHg 88%
04:00 +19°C° 0 mm 2 mps 744 mmHg 90%
05:00 +20°C° 0 mm 2 mps 745 mmHg 85%
06:00 +21°C° 0 mm 2 mps 745 mmHg 80%
07:00 +23°C° 0 mm 2 mps 746 mmHg 76%
08:00 +25°C° 0 mm 3 mps 746 mmHg 63%
09:00 +27°C° 0 mm 3 mps 746 mmHg 51%
10:00 +29°C° 0 mm 4 mps 746 mmHg 38%
11:00 +30°C° 0 mm 4 mps 746 mmHg 35%
12:00 +32°C° 0 mm 4 mps 746 mmHg 31%
13:00 +33°C° 0 mm 4 mps 746 mmHg 27%
14:00 +34°C° 0 mm 4 mps 746 mmHg 26%
15:00 +34°C° 0 mm 4 mps 746 mmHg 24%
16:00 +35°C° 0 mm 4 mps 746 mmHg 23%
17:00 +34°C° 0 mm 4 mps 746 mmHg 24%
18:00 +33°C° 0 mm 3 mps 746 mmHg 26%
19:00 +31°C° 0 mm 3 mps 746 mmHg 28%
20:00 +29°C° 0 mm 2 mps 746 mmHg 33%
21:00 +26°C° 0 mm 2 mps 746 mmHg 37%
22:00 +24°C° 0 mm 1 mps 747 mmHg 42%
23:00 +23°C° 0 mm 1 mps 747 mmHg 44%

2 Agosto, Lunes

Tiempo Temperatura Precipitaciones Viento Presión Humedad
00:00 +23°C° 0 mm 1 mps 747 mmHg 46%
01:00 +22°C° 0 mm 1 mps 747 mmHg 49%
02:00 +22°C° 0 mm 1 mps 747 mmHg 49%
03:00 +20°C° 0 mm 2 mps 747 mmHg 50%
04:00 +20°C° 0 mm 2 mps 747 mmHg 51%
05:00 +21°C° 0 mm 2 mps 747 mmHg 47%
06:00 +24°C° 0 mm 3 mps 747 mmHg 43%
07:00 +26°C° 0 mm 3 mps 748 mmHg 39%
08:00 +28°C° 0 mm 3 mps 748 mmHg 35%
09:00 +32°C° 0 mm 4 mps 748 mmHg 30%
10:00 +35°C° 0 mm 5 mps 748 mmHg 25%
11:00 +36°C° 0 mm 5 mps 747 mmHg 25%
12:00 +36°C° 0 mm 5 mps 747 mmHg 24%
13:00 +37°C° 0 mm 5 mps 747 mmHg 23%
14:00 +38°C° 0 mm 6 mps 747 mmHg 23%
15:00 +39°C° 0 mm 6 mps 747 mmHg 23%
16:00 +39°C° 0 mm 6 mps 747 mmHg 23%
17:00 +37°C° 0 mm 5 mps 747 mmHg 26%
18:00 +35°C° 0 mm 4 mps 747 mmHg 29%
19:00 +34°C° 0 mm 4 mps 747 mmHg 32%
20:00 +31°C° 0 mm 3 mps 747 mmHg 38%
21:00 +29°C° 0 mm 3 mps 747 mmHg 43%
22:00 +27°C° 0 mm 2 mps 747 mmHg 48%
23:00 +26°C° 0 mm 2 mps 747 mmHg 52%
Mostrar más

Necesitamos Su Consentimiento

Meteoprog y nuestros Proveedores de Servicios pueden almacenar y acceder a sus datos personales como cookies, identificadores de dispositivo u otras tecnologías similares de su dispositivo y procesar dichos datos para personalizar contenido y anuncios, además de ofrecer funciones de redes sociales y analizar el tráfico.

  • Almacenar y/o acceder a información en su dispositivo

    Se puede almacenar o acceder a cookies, identificadores de dispositivo u otra información de su dispositivo para los fines anteriormente indicados.

  • Anuncios y contenido personalizados, medición de anuncios y contenido, percepciones del público, y desarrollo de productos

    Los anuncios y el contenido pueden personalizarse en base a su perfil. Se pueden añadir más datos para personalizar mejor los anuncios y contenidos. Se puede medir el rendimiento de los anuncios y contenidos. Se puede obtener la percepción sobre el público que ha visto los anuncios y contenidos. Dichos datos pueden usarse para desarrollar o mejorar la experiencia del usuario, sistemas y software.

Al hacer clic en ‘Estoy De Acuerdo’ usted permitirá el uso de las cookies, identificadores de dispositivo, balizas web u otras tecnologías similares indicadas. Su configuración puede cambiarse desde el navegador de su dispositivo.

Para ciertos fines, los intereses legítimos pueden ser considerados por encima del consentimiento. Puede leer más sobre ello en nuestra Política de Privacidad y Cookies.